EST,Max TemperatureF,Mean TemperatureF,Min TemperatureF,Max Dew PointF,MeanDew PointF,Min DewpointF,Max Humidity, Mean Humidity, Min Humidity, Max Sea Level PressureIn, Mean Sea Level PressureIn, Min Sea Level PressureIn, Max VisibilityMiles, Mean VisibilityMiles, Min VisibilityMiles, Max Wind SpeedMPH, Mean Wind SpeedMPH, Max Gust SpeedMPH,PrecipitationIn, CloudCover, Events, WindDirDegrees
2012-2-1,28,22,15,28,25,16,100,100,100,,,,0,0,0,69,56,82,0.65,,Fog-Snow,265
2012-2-2,17,11,5,16,7,-9,100,83,52,,,,0,0,0,64,39,72,0.02,6,Fog-Snow,301
2012-2-3,6,3,0,7,-3,-18,100,77,36,,,,0,0,0,62,43,70,0.06,6,Fog-Snow,287
2012-2-4,5,2,-2,5,-2,-9,100,90,66,,,,0,0,0,68,55,75,0.05,0,Fog-Snow,297
2012-2-5,5,2,-2,5,-7,-22,100,68,28,,,,0,0,0,60,43,63,0.04,0,Fog-Snow,309
2012-2-6,17,11,5,18,12,5,100,99,93,,,,0,0,0,85,68,100,0.15,3,Fog-Snow,286
2012-2-7,14,4,-5,14,4,-15,100,96,65,,,,0,0,0,70,59,77,0.25,0,Fog-Snow,297
2012-2-8,14,4,-5,-8,-15,-26,71,36,20,,,,,,,58,45,45,0.00,3,Snow,287
2012-2-9,14,12,10,3,-6,-20,73,48,21,,,,,,,58,38,69,0.00,2,Snow,295
2012-2-10,17,12,8,10,-3,-20,100,54,18,,,,2,1,0,38,33,45,0.00,3,Fog,259
2012-2-11,12,5,-4,12,3,-31,100,88,26,,,,20,2,0,62,26,66,0.04,6,Fog-Snow,304
2012-2-12,-5,-14,-22,-11,-18,-26,100,92,38,,,,1,0,0,83,68,96,0.00,2,Fog-Snow,310
2012-2-13,5,-6,-16,5,-3,-17,100,100,100,,,,0,0,0,94,79,107,0.00,8,Fog-Snow,285
2012-2-14,12,8,5,12,4,-20,100,81,26,,,,0,0,0,47,38,59,0.00,6,Fog-Snow,272
2012-2-15,19,16,14,19,17,14,100,100,100,,,,0,0,0,41,28,47,0.00,8,Fog-Snow,273
2012-2-16,21,18,14,21,17,10,100,92,68,,,,10,1,0,30,17,33,0.01,3,Fog-Snow,260
2012-2-17,23,16,8,23,16,9,100,100,100,,,,0,0,0,64,38,71,0.20,,Fog-Snow,269
2012-2-18,8,6,5,9,8,5,100,100,100,,,,0,0,0,63,54,71,0.18,,Fog-Snow,294
2012-2-19,5,2,0,5,2,-4,100,95,78,,,,0,0,0,58,48,63,0.04,2,Fog-Snow,308
2012-2-20,14,6,0,3,-7,-33,100,71,16,,,,0,0,0,78,54,83,0.02,1,Fog-Snow,327
2012-2-21,23,18,12,16,-7,-35,100,42,10,,,,0,0,0,54,28,69,0.00,5,Fog-Snow,262
2012-2-22,21,17,15,21,17,10,100,96,73,,,,0,0,0,61,49,74,0.14,7,Fog-Snow,259
2012-2-23,23,16,8,23,17,9,100,100,93,,,,0,0,0,68,47,79,0.18,8,Fog-Snow,276
2012-2-24,21,14,8,21,6,-17,100,73,21,,,,0,0,0,47,27,58,0.54,8,Fog-Snow,182
2012-2-25,17,8,-4,18,6,-4,100,100,100,,,,0,0,0,89,70,105,0.32,,Fog-Snow,283
2012-2-26,-2,-6,-11,-4,-11,-22,100,79,39,,,,20,2,0,97,75,105,0.02,2,Fog-Snow,305
2012-2-27,19,8,-2,19,8,-6,100,86,66,,,,15,2,0,70,47,81,0.06,5,Fog-Snow,263
2012-2-28,12,6,0,12,-1,-18,100,80,39,,,,0,0,0,92,64,102,0.02,2,Fog-Snow,305
2012-2-29,17,8,0,14,4,-9,100,80,56,,,,0,0,0,41,31,,0.04,6,Fog-Snow,286